Regional Weather Roundup
Issued by NWS

Home | Current Version | Previous Version | Text Only | Print | Product List | Glossary Off
Versions: 1 2 3 4 5 6 7 8 9 10 11 12 13 14 15 16 17 18 19 20 21 22 23 24 25 26 27 28 29 30 31 32 33 34 35 36 37 38 39 40 41 42 43 44 45 46 47 48 49 50

000
ASUS43 KIND 311359
RWRIN

WEATHER ROUNDUP FOR INDIANA
NATIONAL WEATHER SERVICE INDIANAPOLIS IN
1000 AM EDT THU JUL 31 2014

NOTE: "FAIR" INDICATES FEW OR NO CLOUDS BELOW 12,000 FEET WITH NO
SIGNIFICANT WEATHER AND/OR OBSTRUCTIONS TO VISIBILITY.

* - STATION DOES NOT REPORT WEATHER SUCH AS PRECIPITATION OR FOG.

+ - STATION NOT QUALITY CONTROLLED BY THE NATIONAL WEATHER SERVICE.
    USE DATA WITH CAUTION...ESPECIALLY DEWPOINT AND RELATIVE
    HUMIDITY OBSERVATIONS.

INZ001>003-010>013-019-020-311500-
NORTHWEST INDIANA

CITY           SKY/WX    TMP DP  RH WIND       PRES   REMARKS
GARY /AIRPORT/ MOSUNNY   72  59  64 SW9       30.05S FOG
KNOX *+        MOSUNNY   67  60  77 SW6       30.05S
MONTICELLO +   SUNNY     65  62  89 W3        30.07R
RENSSELAER +   SUNNY     63  63 100 SW5       30.08R
VALPARAISO     SUNNY     69  61  75 SW6       30.06S

$$

LMZ046-743>745-311500-
SOUTHERN LAKE MICHIGAN

STATION/POSITION TIME  TEMP WIND        PRES
                       AIR  DIR/SP/G
                 (UTC) (F)  (DEG/KT/KT) (MB)
MICHIGAN CITY    1300   65  180/ 10/ 12   N/A

$$

INZ004-005-014>016-021>024-311500-
NORTH CENTRAL INDIANA

CITY           SKY/WX    TMP DP  RH WIND       PRES   REMARKS
GOSHEN         SUNNY     68  58  70 SW8       30.05S
SOUTH BEND     MOSUNNY   69  57  65 SW9       30.06R
WARSAW +       SUNNY     68  57  68 SW5       30.06S

$$

INZ006>009-017-018-025>027-311500-
NORTHEAST INDIANA

CITY           SKY/WX    TMP DP  RH WIND       PRES   REMARKS
ANGOLA *+      SUNNY     70  63  78 W7        30.06R
FORT WAYNE     SUNNY     68  60  75 SW6       30.08S

$$

INZ028-029-035-036-043>045-051>053-311500-
WEST CENTRAL INDIANA

CITY           SKY/WX    TMP DP  RH WIND       PRES   REMARKS
GREENCASTLE +  SUNNY     68  61  77 CALM      30.11R HAZE
LAFAYETTE      SUNNY     66  62  87 W3        30.08R
TERRE HAUTE    SUNNY     72  61  68 CALM      30.10R

$$

INZ030>032-037>040-046>048-054>057-064-065-311500-
CENTRAL INDIANA

CITY           SKY/WX    TMP DP  RH WIND       PRES   REMARKS
COLUMBUS       SUNNY     68  64  88 CALM      30.10R
INDIANAPOLIS   SUNNY     68  62  81 SW5       30.10R
-EAGLE CREEK   SUNNY     69  61  75 VRB3      30.09R
KOKOMO *+      SUNNY     70  63  78 SW6       30.08S
MT COMFORT *+  SUNNY     72  72 100 W3        30.09S
SHELBYVILLE    SUNNY     71  64  78 W6        30.09S

$$

INZ033-034-041-042-049-050-058-059-311500-
EAST CENTRAL INDIANA

CITY           SKY/WX    TMP DP  RH WIND       PRES   REMARKS
MUNCIE         SUNNY     70  61  73 W3        30.09R

$$

INZ060-061-067>069-081>083-085>088-311500-
SOUTHWEST INDIANA

CITY           SKY/WX    TMP DP  RH WIND       PRES   REMARKS
EVANSVILLE     SUNNY     72  61  68 CALM      30.11S

$$

INZ062-063-066-070>080-084-089>092-311500-
SOUTH CENTRAL AND SOUTHEAST INDIANA

CITY           SKY/WX    TMP DP  RH WIND       PRES   REMARKS
BLOOMINGTON    SUNNY     72  62  71 CALM      30.11R
SEYMOUR +      SUNNY     68  52  56 CALM      30.10

$$




USA.gov is the U.S. government's official web portal to all federal, state and local government web resources and services.